This is the latest recevied weather packets stored in our database for station/object N6GPM. If no packets are shown the sender has not sent any weather packets the latest 10 day(s).
| Time | Temp. | Humidity | Pressure | Rain* | Wind** | Luminosity | Snow |
|---|---|---|---|---|---|---|---|
| 1788206565 | 30° C | 42% | 1017.9 hPa | 0 mm | - | 978 W/m² | - |
| 1788206260 | 29.44° C | 43% | 1017.8 hPa | 0 mm | - | 982 W/m² | - |
| 1788205956 | 30° C | 42% | 1017.8 hPa | 0 mm | - | 982 W/m² | - |
| 1788205650 | 29.44° C | 41% | 1017.9 hPa | 0 mm | - | 979 W/m² | - |
| 1788205346 | 29.44° C | 40% | 1017.9 hPa | 0 mm | - | 981 W/m² | - |
| 1788205040 | 28.89° C | 42% | 1018 hPa | 0 mm | - | 982 W/m² | - |
| 1788204735 | 29.44° C | 42% | 1017.9 hPa | 0 mm | - | 979 W/m² | - |
| 1788204430 | 29.44° C | 43% | 1018.2 hPa | 0 mm | - | 977 W/m² | - |
| 1788204125 | 29.44° C | 42% | 1018.2 hPa | 0 mm | - | 979 W/m² | - |
| 1788203821 | 28.89° C | 41% | 1018.1 hPa | 0 mm | - | 979 W/m² | - |
| 1788203517 | 28.89° C | 44% | 1018 hPa | 0 mm | - | 976 W/m² | - |
| 1788203212 | 28.89° C | 42% | 1018.3 hPa | 0 mm | - | 969 W/m² | - |
| 1788202911 | 28.89° C | 44% | 1018.2 hPa | 0 mm | - | 962 W/m² | - |
| 1788202606 | 28.89° C | 41% | 1018.3 hPa | 0 mm | - | 961 W/m² | - |
| 1788202302 | 28.89° C | 44% | 1018.1 hPa | 0 mm | - | 957 W/m² | - |
| 1788201996 | 28.33° C | 44% | 1018.4 hPa | 0 mm | - | 953 W/m² | - |
| 1788201691 | 28.89° C | 44% | 1018.2 hPa | 0 mm | - | 956 W/m² | - |
| 1788201385 | 28.33° C | 43% | 1018.3 hPa | 0 mm | - | 936 W/m² | - |
| 1788201085 | 27.78° C | 46% | 1018.3 hPa | 0 mm | - | 937 W/m² | - |
| 1788200784 | 28.33° C | 46% | 1018.4 hPa | 0 mm | - | 919 W/m² | - |
| 1788200480 | 28.89° C | 44% | 1018.4 hPa | 0 mm | - | 912 W/m² | - |
| 1788200179 | 29.44° C | 39% | 1018.3 hPa | 0 mm | - | 903 W/m² | - |
| 1788199874 | 28.89° C | 44% | 1018.1 hPa | 0 mm | - | 893 W/m² | - |
| 1788199575 | 28.89° C | 39% | 1018.3 hPa | 0 mm | - | 887 W/m² | - |
| 1788199264 | 28.89° C | 38% | 1018.3 hPa | 0 mm | - | 877 W/m² | - |
* Rain latest hour (hover to see other rain measurements)
** Current wind speed in m/s (hover to see current wind gust speed)